When you browse on this site, cookies collect data to enhance your experience and personalize the content and advertising you see.
Visit our Privacy Policy to learn more. By continuing to use the site, you agree to this use of cookies and data.
  • In Hungary
  • List of Countries
  • For 7 days
  • Water Temperature
  • Satellite Maps
  • Weather Map
  • News
  • Weather Widgets
  • user-avatar
    Login

    Hourly Weather Kristinehamn

    Today, 26 June, Wednesday

    Time Temperature Precipitation Wind Pressure Humidity
    00:00 +14°C° 0.2 mm 3 mps 758 mmHg 81%
    01:00 +15°C° 0 mm 2 mps 758 mmHg 88%
    02:00 +15°C° 0.5 mm 1 mps 757 mmHg 90%
    03:00 +15°C° 0.5 mm 1 mps 757 mmHg 92%
    04:00 +15°C° 0.5 mm 1 mps 756 mmHg 93%
    05:00 +15°C° 0.2 mm 1 mps 756 mmHg 94%
    06:00 +15°C° 0.2 mm 1 mps 756 mmHg 96%
    07:00 +15°C° 0 mm 1 mps 756 mmHg 96%
    08:00 +14°C° 0.3 mm 0 mps 755 mmHg 96%
    09:00 +14°C° 0.3 mm 0 mps 755 mmHg 96%
    10:00 +15°C° 0.3 mm 0 mps 755 mmHg 96%
    11:00 +16°C° 0 mm 0 mps 754 mmHg 90%
    12:00 +18°C° 0 mm 0 mps 754 mmHg 83%
    13:00 +19°C° 0 mm 0 mps 754 mmHg 77%
    14:00 +22°C° 0.1 mm 1 mps 753 mmHg 73%
    15:00 +23°C° 0.1 mm 2 mps 753 mmHg 69%
    16:00 +23°C° 0.1 mm 2 mps 753 mmHg 65%
    17:00 +21°C° 0.4 mm 2 mps 752 mmHg 72%
    18:00 +20°C° 0.4 mm 2 mps 752 mmHg 79%
    19:00 +19°C° 0.4 mm 2 mps 752 mmHg 86%
    20:00 +18°C° 0.3 mm 2 mps 752 mmHg 88%
    21:00 +17°C° 0.3 mm 2 mps 752 mmHg 90%
    22:00 +16°C° 0.3 mm 2 mps 752 mmHg 92%
    23:00 +16°C° 0 mm 2 mps 752 mmHg 91%

    Tomorrow, 27 June, Thursday

    Time Temperature Precipitation Wind Pressure Humidity
    00:00 +14°C° 0 mm 3 mps 753 mmHg 91%
    01:00 +14°C° 0 mm 3 mps 753 mmHg 90%
    02:00 +13°C° 0 mm 4 mps 753 mmHg 84%
    03:00 +12°C° 0 mm 4 mps 754 mmHg 78%
    04:00 +10°C° 0 mm 5 mps 754 mmHg 72%
    05:00 +13°C° 0 mm 4 mps 754 mmHg 65%
    06:00 +14°C° 0 mm 4 mps 755 mmHg 58%
    07:00 +15°C° 0 mm 4 mps 755 mmHg 51%
    08:00 +18°C° 0 mm 4 mps 755 mmHg 46%
    09:00 +19°C° 0 mm 4 mps 756 mmHg 42%
    10:00 +20°C° 0 mm 4 mps 756 mmHg 38%
    11:00 +21°C° 0 mm 4 mps 756 mmHg 37%
    12:00 +21°C° 0 mm 4 mps 756 mmHg 36%
    13:00 +22°C° 0 mm 4 mps 756 mmHg 35%
    14:00 +22°C° 0 mm 4 mps 756 mmHg 35%
    15:00 +22°C° 0 mm 4 mps 756 mmHg 36%
    16:00 +22°C° 0 mm 4 mps 756 mmHg 36%
    17:00 +21°C° 0 mm 3 mps 756 mmHg 39%
    18:00 +20°C° 0 mm 3 mps 756 mmHg 42%
    19:00 +20°C° 0 mm 2 mps 756 mmHg 46%
    20:00 +18°C° 0 mm 2 mps 756 mmHg 50%
    21:00 +16°C° 0 mm 2 mps 757 mmHg 54%
    22:00 +13°C° 0 mm 3 mps 757 mmHg 58%
    23:00 +12°C° 0 mm 3 mps 757 mmHg 59%

    Day after tomorrow, 28 June, Friday

    Time Temperature Precipitation Wind Pressure Humidity
    00:00 +11°C° 0 mm 3 mps 757 mmHg 61%
    01:00 +10°C° 0 mm 3 mps 758 mmHg 62%
    02:00 +10°C° 0 mm 2 mps 758 mmHg 64%
    03:00 +9°C° 0 mm 2 mps 758 mmHg 65%
    04:00 +9°C° 0 mm 2 mps 758 mmHg 67%
    05:00 +10°C° 0 mm 2 mps 758 mmHg 62%
    06:00 +13°C° 0 mm 2 mps 758 mmHg 56%
    07:00 +14°C° 0 mm 1 mps 758 mmHg 51%
    08:00 +16°C° 0 mm 2 mps 758 mmHg 48%
    09:00 +18°C° 0 mm 2 mps 758 mmHg 44%
    10:00 +20°C° 0 mm 2 mps 758 mmHg 40%
    11:00 +20°C° 0 mm 3 mps 757 mmHg 40%
    12:00 +21°C° 0 mm 3 mps 757 mmHg 39%
    13:00 +22°C° 0 mm 3 mps 757 mmHg 39%
    14:00 +21°C° 0 mm 3 mps 756 mmHg 40%
    15:00 +21°C° 0 mm 3 mps 756 mmHg 40%
    16:00 +21°C° 0 mm 3 mps 756 mmHg 41%
    17:00 +21°C° 0 mm 3 mps 756 mmHg 43%
    18:00 +20°C° 0 mm 3 mps 755 mmHg 46%
    19:00 +20°C° 0 mm 3 mps 755 mmHg 48%
    20:00 +18°C° 0 mm 3 mps 755 mmHg 53%
    21:00 +17°C° 0 mm 3 mps 755 mmHg 58%
    22:00 +16°C° 0 mm 3 mps 755 mmHg 63%
    23:00 +14°C° 0 mm 3 mps 755 mmHg 70%

    29 June, Saturday

    Time Temperature Precipitation Wind Pressure Humidity
    00:00 +14°C° 0 mm 3 mps 754 mmHg 77%
    01:00 +14°C° 0 mm 2 mps 754 mmHg 84%
    02:00 +14°C° 0 mm 2 mps 754 mmHg 87%
    03:00 +13°C° 0 mm 2 mps 754 mmHg 90%
    04:00 +13°C° 0 mm 2 mps 754 mmHg 92%
    05:00 +15°C° 0 mm 2 mps 753 mmHg 83%
    06:00 +18°C° 0 mm 1 mps 753 mmHg 73%
    07:00 +20°C° 0 mm 1 mps 753 mmHg 64%
    08:00 +22°C° 0 mm 1 mps 753 mmHg 59%
    09:00 +23°C° 0 mm 1 mps 753 mmHg 53%
    10:00 +25°C° 0 mm 2 mps 753 mmHg 47%
    11:00 +25°C° 0 mm 2 mps 752 mmHg 47%
    12:00 +25°C° 0 mm 2 mps 752 mmHg 47%
    13:00 +25°C° 0 mm 3 mps 751 mmHg 47%
    14:00 +26°C° 0 mm 2 mps 751 mmHg 45%
    15:00 +27°C° 0 mm 2 mps 751 mmHg 42%
    16:00 +28°C° 0 mm 2 mps 750 mmHg 40%
    17:00 +27°C° 0 mm 2 mps 750 mmHg 45%
    18:00 +26°C° 0 mm 2 mps 750 mmHg 50%
    19:00 +25°C° 0 mm 2 mps 750 mmHg 54%
    20:00 +22°C° 0 mm 3 mps 750 mmHg 60%
    21:00 +20°C° 0 mm 4 mps 750 mmHg 67%
    22:00 +19°C° 0 mm 4 mps 749 mmHg 74%
    23:00 +18°C° 0 mm 4 mps 749 mmHg 77%

    30 June, Sunday

    Time Temperature Precipitation Wind Pressure Humidity
    00:00 +17°C° 0 mm 4 mps 749 mmHg 80%
    01:00 +15°C° 0 mm 4 mps 748 mmHg 83%
    02:00 +15°C° 0 mm 5 mps 748 mmHg 82%
    03:00 +15°C° 0 mm 5 mps 747 mmHg 82%
    04:00 +15°C° 0 mm 5 mps 747 mmHg 81%
    05:00 +16°C° 0 mm 6 mps 747 mmHg 76%
    06:00 +17°C° 0 mm 6 mps 746 mmHg 72%
    07:00 +19°C° 0 mm 6 mps 745 mmHg 67%
    08:00 +20°C° 0 mm 6 mps 745 mmHg 63%
    09:00 +21°C° 0 mm 6 mps 744 mmHg 59%
    10:00 +23°C° 0 mm 6 mps 744 mmHg 56%
    11:00 +24°C° 0 mm 7 mps 743 mmHg 53%
    12:00 +26°C° 0 mm 7 mps 742 mmHg 50%
    13:00 +27°C° 0 mm 7 mps 741 mmHg 48%
    14:00 +26°C° 0 mm 8 mps 741 mmHg 51%
    15:00 +26°C° 0 mm 8 mps 740 mmHg 54%
    16:00 +24°C° 0 mm 9 mps 740 mmHg 57%
    17:00 +23°C° 0 mm 9 mps 740 mmHg 58%
    18:00 +22°C° 0 mm 8 mps 740 mmHg 59%
    19:00 +21°C° 0 mm 8 mps 740 mmHg 61%
    20:00 +20°C° 0 mm 7 mps 740 mmHg 64%
    21:00 +18°C° 0 mm 7 mps 740 mmHg 67%
    22:00 +17°C° 0 mm 7 mps 741 mmHg 70%
    23:00 +17°C° 0 mm 7 mps 741 mmHg 67%

    1 July, Monday

    Time Temperature Precipitation Wind Pressure Humidity
    00:00 +16°C° 0 mm 7 mps 741 mmHg 65%
    01:00 +16°C° 0 mm 7 mps 741 mmHg 62%
    02:00 +15°C° 0 mm 7 mps 741 mmHg 67%
    03:00 +15°C° 0 mm 6 mps 741 mmHg 72%
    04:00 +14°C° 0 mm 6 mps 741 mmHg 77%
    05:00 +15°C° 0 mm 7 mps 741 mmHg 75%
    06:00 +15°C° 0 mm 7 mps 741 mmHg 72%
    07:00 +16°C° 0 mm 7 mps 741 mmHg 70%
    08:00 +17°C° 0 mm 8 mps 741 mmHg 63%
    09:00 +18°C° 0 mm 8 mps 741 mmHg 55%
    10:00 +19°C° 0 mm 9 mps 741 mmHg 48%
    11:00 +19°C° 0.1 mm 9 mps 740 mmHg 48%
    12:00 +19°C° 0.1 mm 9 mps 740 mmHg 48%
    13:00 +21°C° 0.1 mm 9 mps 740 mmHg 49%
    14:00 +19°C° 0.1 mm 9 mps 740 mmHg 51%
    15:00 +19°C° 0.1 mm 9 mps 740 mmHg 53%
    16:00 +18°C° 0.1 mm 9 mps 740 mmHg 55%
    17:00 +18°C° 0 mm 9 mps 740 mmHg 57%
    18:00 +17°C° 0 mm 8 mps 739 mmHg 59%
    19:00 +16°C° 0 mm 8 mps 739 mmHg 61%
    20:00 +15°C° 0 mm 8 mps 739 mmHg 66%
    21:00 +14°C° 0 mm 7 mps 739 mmHg 70%
    22:00 +12°C° 0 mm 7 mps 739 mmHg 75%
    23:00 +13°C° 0 mm 6 mps 740 mmHg 76%
    Show more